C/2014 A4 ( SONEAR )

Japanese version
Home page
Updated on February 7, 2017

---------------------------------------------------------------------

* Profile

Discovery Date January 12, 2014
Magnitude 18.1 mag
Discoverer Southern Observatory for Near Earth Research (Oliveira, Brazil)

* Pictures

* Orbital Elements

Epoch 2015 Sept. 15.0 TT = JDT 2457280.5
T 2015 Sept. 5.86434 TT                                 MPCW
q   4.1801817            (2000.0)            P               Q
z  -0.0001952      Peri.  356.78843     +0.85257578     +0.30629483
 +/-0.0000003      Node    29.72718     +0.49649575     -0.72761942
e   1.0008160      Incl.  121.35891     +0.16311501     +0.61380247
From 2461 observations 2014 Jan. 12-2016 Nov. 8, mean residual 0".5.

* Finding Charts

* Magnitudes Graph

        m1 = 6.0 + 5 log d + 10.0 log r(t + 50)

---------------------------------------------------------------------

The orbital elements are published on M.P.E.C. 2016-V116.
The magnitudes graphs are made with Comet for Windows.

---------------------------------------------------------------------

Copyright(C) Seiichi Yoshida (comet@aerith.net). All rights reserved.